AirNav   Phillips 66 Aviation Fuel
 
 642 users online  

2KY0 Jane Todd Crawford Hospital Heliport
Greensburg, Kentucky, USA

GOING TO GREENSBURG?


FAA INFORMATION EFFECTIVE 14 SEPTEMBER 2017

Location

FAA Identifier: 2KY0
Lat/Long: 37-14-35.7600N / 085-29-34.8700W
37-14.596000N / 085-29.581167W
37.2432667 / -85.4930194
(estimated)
Elevation: 625 ft. / 190 m (estimated)
Variation: 03W (1995)
From city: 1 mile SE of GREENSBURG, KY
Time zone: UTC -5 (UTC -6 during Standard Time)
Zip code: 42743

Heliport Operations

Heliport use: Private use, MEDICAL USE.
Activation date: 06/1998
Control tower: no
ARTCC: INDIANAPOLIS CENTER
FSS: LOUISVILLE FLIGHT SERVICE STATION
Attendance: UNATNDD
Wind indicator: lighted
Segmented circle: no

Heliport Communications

WX AWOS-3 at AAS (11 nm NE): 121.125 (270-789-1985)

Nearby radio navigation aids

VOR radial/distance  VOR name  Freq  Var
EWOr159/24.9NEW HOPE VOR/DME110.8001E

Heliport Services

Runway Information

Helipad H1

Dimensions: 24 x 24 ft. / 7 x 7 m
Surface: concrete
Latitude: 37-14.596000N
Longitude: 085-29.581167W
Elevation: 625.0 ft.
Traffic pattern: leftleft

Heliport Ownership and Management from official FAA records

Ownership: Privately-owned
Owner: JANE TODD CRAWFORD HOSPITAL
202-206 MILBY STREET
GREENSBURG, KY 42743
Phone 270-932-4211
Manager: HENRY SHUFFETT
PO BOX 313
GREENSBURG, KY 42743
Phone 270-405-1299

Heliport Operational Statistics

Aircraft based on the field: 1
Helicopters: 1
    

Additional Remarks

A52-H1 25 FT POWER LINES 105 FT SSE; 40 FT TREES 110 FT N; 130 FT ANT TWR 350 YARDS W.

Instrument Procedures

There are no published instrument procedures at 2KY0.

Some nearby airports with instrument procedures:

KAAS - Taylor County Airport (11 nm NE)
K24 - Russell County Airport (23 nm SE)
KGLW - Glasgow Municipal Airport (25 nm SW)
6I2 - Lebanon Springfield Airport-George Hoerter Field (26 nm NE)
KTZV - Tompkinsville-Monroe County Airport (32 nm S)
 
Loc | Ops | Rwys | IFR | FBO | Links
Com | Nav | Svcs | Stats | Notes


 
Area around 2KY0 (Jane Todd Crawford Hospital Heliport)
 
Road maps at: MapQuest Bing Google
 
Aerial photo
No photo
 
Sectional chart

 
Airport distance calculator
Flying to Jane Todd Crawford Hospital Heliport? Find the distance to fly.

From to 2KY0

Sunrise and sunset
Times for 26-Sep-2017
 Local
(UTC-5)
 Zulu
(UTC)
Morning civil twilight06:0811:08
Sunrise06:3411:34
Sunset18:3323:33
Evening civil twilight18:5823:58

Current date and time
Zulu (UTC)  26-Sep-2017 11:26:25
Local (UTC-5)  26-Sep-2017 06:26:25
 
METAR
KGLW 
25nm SW 
261055Z AUTO 00000KT 4SM HZ CLR A3000 RMK AO2
K6I2 
26nm NE 
261055Z AUTO 00000KT 10SM CLR 18/17 A3002 RMK AO2
KEKX 
34nm NW 
261115Z AUTO 00000KT 10SM CLR 17/17 A3002 RMK AO2 T01680168
KEKQ 
38nm SE 
261056Z AUTO 03008KT 8SM FEW003 14/14 A3004 RMK AO2 SLP186 T01390139
KDVK 
40nm NE 
261055Z AUTO 00000KT 10SM CLR 15/15 A3004 RMK AO2
KSME 
43nm E 
261055Z AUTO 00000KT 7SM CLR 15/15 A3004 RMK AO2
KFTK 
45nm NW 
261058Z AUTO 00000KT 5SM BR CLR 17/17 A2999 RMK AO2 SLP153 T01740174
KBWG 
47nm W 
261111Z AUTO 00000KT 3/4SM BR CLR 17/17 A3000 RMK AO2 T01720172
TAF
KSME 
43nm E 
260526Z 2606/2706 VRB03KT P6SM SCT250 TEMPO 2609/2612 3SM BR SCT003
KFTK 
45nm NW 
260900Z 2609/2715 VRB06KT 9999 FEW050 QNH2994INS TEMPO 2609/2611 4800 BR TX30/2620Z TN16/2611Z
KBWG 
47nm W 
261014Z 2610/2706 00000KT 4SM BR SKC TEMPO 2610/2612 1/2SM FG FM261300 06004KT P6SM FEW060
NOTAMs
Click for the latest NOTAMs
NOTAMs are issued by the DoD/FAA and will open in a separate window not controlled by AirNav.

 

 
 

Would you like to see your business listed on this page?

 If your business provides an interesting product or service to pilots, flight crews, aircraft, or users of the Jane Todd Crawford Hospital Heliport, you should consider listing it here.  To start the listing process, click on the button below
 
Add a business
 

Other Pages about Jane Todd Crawford Hospital Heliport

Update a link
 
Copyright © AirNav, LLC. All rights reserved. Privacy Policy  Contact